Saint Paul Island, AK

9:09 AM AKDT on October 19, 2017 (GMT -0800)
Saint Paul Island

Weather History for PASN - October, 2012

Change the Weather History Date:

Wednesday, October 31, 2012

  Actual Average Record
Temperature  
Mean Temperature 32 °F 36 °F  
Max Temperature 35 °F 39 °F 47 °F (1979)
Min Temperature 29 °F 32 °F 13 °F (1960)
Degree Days  
Heating Degree Days 33 29  
Month to date heating degree days 816 817  
Since 1 July heating degree days 2663 2461  
Cooling Degree Days 0 0  
Month to date cooling degree days 0 0  
Year to date cooling degree days 0 0  
Moisture  
Dew Point 23 °F    
Average Humidity 0    
Maximum Humidity 0    
Minimum Humidity 0    
Precipitation  
Precipitation 0.01 in 0.10 in 1.29 in (1957)
Month to date precipitation 3.85 3.11  
Year to date precipitation 22.24 18.53  
Snow  
Snow T in 0.10 in 5.30 in (1968)
Month to date snowfall 0.8 2.0  
Since 1 July snowfall 0.8 2.0  
Since 1 September snowfall 0.8 2.0  
Snow Depth 0.00 in    
Sea Level Pressure  
Sea Level Pressure 30.36 in    
Wind  
Wind Speed 27 mph (North)    
Max Wind Speed 36 mph    
Max Gust Speed 43 mph    
Visibility 9 miles    
Events Rain , Snow    
T = Trace of Precipitation, MM = Missing Value Source: NWS Daily Summary

Daily Weather History Graph

Daily Weather History Graph

Search for Another Location

Airport or City:

Trip Planner

Search our weather history database for the weather conditions in past years. The results will help you decide how hot, cold, wet, or windy it might be!

Date:

Astronomy

Oct. 31, 2012 Rise Set
Actual Time 10:31 AM AKDT 7:36 PM AKDT
Civil Twilight 9:50 AM AKDT 8:17 PM AKDT
Nautical Twilight 9:04 AM AKDT 9:03 PM AKDT
Astronomical Twilight 8:20 AM AKDT 9:47 PM AKDT
Moon 8:30 PM AKDT (10/31) 12:50 PM AKDT (10/31)
Length of Visible Light 10h 27m
Length of Day
9h 05m
Waning Gibbous, 96% of the Moon is Illuminated
Oct 31
Waning Gibbous
Nov 6
Last Quarter
Nov 13
New
Nov 20
First Quarter
Nov 28
Full

Hourly Weather History & Observations

Time (AKDT) Temp. Windchill Dew Point Humidity Pressure Visibility Wind Dir Wind Speed Gust Speed Precip Events Conditions
12:53 AM 33.1 °F 20.3 °F 24.1 °F 70% 30.47 in 10.0 mi North 24.2 mph 33.4 mph 0.00 in Snow Light Snow
1:00 AM 33.8 °F 20.3 °F 23.0 °F 65% 30.47 in 9.0 mi North 28.8 mph 36.8 mph 0.00 in Snow Light Snow
1:53 AM 33.1 °F 21.5 °F 23.0 °F 66% 30.47 in 10.0 mi North 19.6 mph 29.9 mph 0.00 in   Overcast
2:53 AM 33.1 °F 19.8 °F 21.9 °F 64% 30.46 in 10.0 mi North 26.5 mph 34.5 mph N/A   Overcast
3:53 AM 33.1 °F 20.6 °F 25.0 °F 72% 30.45 in 9.0 mi North 23.0 mph 32.2 mph 0.00 in Snow Light Snow
4:53 AM 33.1 °F 20.9 °F 21.0 °F 61% 30.44 in 10.0 mi North 21.9 mph 29.9 mph 0.00 in   Overcast
5:53 AM 33.1 °F 20.1 °F 25.0 °F 72% 30.43 in 10.0 mi North 25.3 mph 33.4 mph 0.00 in   Overcast
6:53 AM 32.0 °F 18.6 °F 24.1 °F 73% 30.41 in 10.0 mi North 25.3 mph 33.4 mph 0.00 in Snow Light Snow
7:53 AM 33.1 °F 20.1 °F 24.1 °F 70% 30.40 in 10.0 mi North 25.3 mph 35.7 mph 0.00 in   Overcast
8:53 AM 32.0 °F 17.2 °F 25.0 °F 75% 30.39 in 9.0 mi North 32.2 mph 40.3 mph 0.00 in   Overcast
9:53 AM 33.1 °F 19.6 °F 23.0 °F 66% 30.38 in 10.0 mi North 27.6 mph 36.8 mph N/A   Overcast
10:53 AM 33.1 °F 19.6 °F 21.9 °F 64% 30.37 in 10.0 mi North 27.6 mph 38.0 mph N/A   Overcast
11:53 AM 33.1 °F 20.6 °F 25.0 °F 72% 30.37 in 9.0 mi NNE 23.0 mph 34.5 mph 0.00 in Snow Light Snow
12:11 PM 33.8 °F 19.9 °F 24.8 °F 70% 30.37 in 10.0 mi North 31.1 mph 38.0 mph 0.00 in Rain Light Rain
12:20 PM 33.8 °F 20.8 °F 26.6 °F 75% 30.37 in 10.0 mi North 26.5 mph 34.5 mph 0.00 in   Overcast
12:53 PM 33.1 °F 19.3 °F 21.0 °F 61% 30.36 in 10.0 mi North 28.8 mph 32.2 mph 0.00 in   Overcast
1:53 PM 34.0 °F 21.3 °F 19.9 °F 56% 30.35 in 10.0 mi North 25.3 mph 34.5 mph N/A   Overcast
2:53 PM 34.0 °F 21.3 °F 21.9 °F 61% 30.34 in 9.0 mi North 25.3 mph 32.2 mph 0.00 in Snow Light Snow
3:22 PM 32.0 °F 18.6 °F 26.6 °F 80% 30.33 in 1.8 mi North 25.3 mph 34.5 mph 0.00 in Snow Light Snow
3:27 PM 30.2 °F 16.8 °F 26.6 °F 86% 30.33 in 5.0 mi North 23.0 mph 34.5 mph 0.00 in Snow Light Snow
3:34 PM 33.8 °F 21.3 °F 28.4 °F 81% 30.32 in 8.0 mi North 24.2 mph 34.5 mph 0.00 in Snow Light Snow
3:53 PM 33.1 °F 19.3 °F 25.0 °F 72% 30.32 in 8.0 mi North 28.8 mph 35.7 mph 0.01 in Snow Light Snow
4:53 PM 33.1 °F 19.8 °F 21.9 °F 64% 30.30 in 9.0 mi North 26.5 mph 36.8 mph 0.00 in Snow Light Snow
5:53 PM 33.1 °F 20.3 °F 21.9 °F 64% 30.29 in 10.0 mi North 24.2 mph 35.7 mph 0.00 in   Overcast
6:53 PM 33.1 °F 19.3 °F 21.0 °F 61% 30.27 in 10.0 mi North 28.8 mph 38.0 mph 0.00 in   Overcast
7:53 PM 33.1 °F 19.1 °F 19.9 °F 59% 30.26 in 10.0 mi North 29.9 mph 39.1 mph 0.00 in   Overcast
8:53 PM 30.9 °F 16.9 °F 25.0 °F 79% 30.25 in 4.0 mi North 26.5 mph 36.8 mph 0.00 in Snow Light Snow
9:53 PM 30.9 °F 16.4 °F 21.9 °F 69% 30.25 in 7.0 mi NNE 28.8 mph 42.6 mph 0.00 in Snow Light Snow
10:53 PM 32.0 °F 17.9 °F 21.9 °F 66% 30.24 in 9.0 mi North 28.8 mph 36.8 mph 0.00 in   Overcast
11:53 PM 32.0 °F 17.0 °F 18.0 °F 56% 30.23 in 10.0 mi North 33.4 mph 41.4 mph 0.00 in   Overcast